Regional Weather Roundup
Issued by NWS Green Bay, WI

Home | Current Version | Previous Version | Text Only | Print | Product List | Glossary On
Versions: 1 2 3 4 5 6 7 8 9 10 11 12 13 14 15 16 17 18 19 20 21 22 23 24 25 26 27 28 29 30 31 32 33 34 35 36 37 38 39 40 41 42 43 44 45 46 47 48 49 50
000
ASUS43 KGRB 230100
RWRGRB

NORTH-CENTRAL AND NORTHEAST WISCONSIN REGIONAL WEATHER ROUNDUP
NATIONAL WEATHER SERVICE GREEN BAY WI
800 PM CDT SUN APR 22 2018

WIZ005-009-010>012-018-019-230200-
NORTH CENTRAL WISCONSIN

CITY           SKY/WX    TMP DP  RH WIND       PRES   REMARKS
IRONWOOD       FAIR      55  23  28 E5        30.25S
MANITOWISH WTR NOT AVBL
ARBOR VITAE    NOT AVBL
EAGLE RIVER    FAIR      54  21  27 S5        30.26S
LAND O LAKES   FAIR      50  17  26 CALM      30.27S
RHINELANDER    FAIR      53  23  31 S5        30.27F
PHILLIPS       FAIR      53  25  34 S5        30.26S
ANTIGO         NOT AVBL
TOMAHAWK       NOT AVBL
MERRILL          N/A     52  17  24 SE3       30.29R
$$

WIZ013-073-230200-
NORTHEAST WISCONSIN

CITY           SKY/WX    TMP DP  RH WIND       PRES   REMARKS
IRON MOUNTAIN  FAIR      52  17  25 SE5       30.27F
MARINETTE      FAIR      44  24  45 CALM      30.32S
$$

WIZ017-030-035>037-045-230200-
CENTRAL WISCONSIN

CITY           SKY/WX    TMP DP  RH WIND       PRES   REMARKS
MEDFORD        NOT AVBL
WAUSAU         FAIR      50  15  24 SE7       30.27S
MOSINEE        PTCLDY    48  16  27 SE5       30.30S
MARSHFIELD     FAIR      51  20  29 E6        30.27S
WISC RAPIDS    FAIR      51  18  27 E5        30.29S
STEVENS POINT  NOT AVBL
WAUPACA        FAIR      52  27  38 CALM      30.30S
SHAWANO        FAIR      46  27  47 CALM      30.30S
CLINTONVILLE   FAIR      51  24  34 CALM      30.30R
WAUTOMA        FAIR      52  29  41 NE3       30.29S
$$

WIZ038-039-048-051-230200-
FOX VALLEY

CITY           SKY/WX    TMP DP  RH WIND       PRES   REMARKS
NWS GREEN BAY  FAIR      50  30  46 NE7       30.30S
APPLETON       CLEAR     54  21  28 CALM      30.28S
OSHKOSH        FAIR      50  32  50 CALM      30.29F
FOND DU LAC    FAIR      50  31  48 CALM      30.29S
$$

WIZ022-050-052-230200-
EAST CENTRAL WISCONSIN

CITY           SKY/WX    TMP DP  RH WIND       PRES   REMARKS
EPHRAIM        NOT AVBL
WASHINGTON ISL NOT AVBL
STURGEON BAY   NOT AVBL
MANITOWOC      FAIR      46  26  45 CALM      30.31F
SHEBOYGAN      FAIR      40  30  67 E3        30.30F
$$

LMZ563-521-522-541>543-230200-
LAKESHORE

STATION/POSITION TIME  TEMP    WIND        PRES    VSBY  WAVE
                       AIR SEA DIR/SP/G                  HT/PER
                 (UTC) (F)     (DEG/KT/KT) (MB)    (MI)  (FT/S)
SHEBOYGAN LKSHOR 0000   40      20/  4/  5 1026.9F
KEWAUNEE LKSHORE 0030   43        CALM     1025.6F
SISTER BAY LKSHO 0027   51     130/  5/  7   N/A
MENOMINEE LKSHOR 0030   40     120/  5/  5 1025.8F
$$




USA.gov is the U.S. government's official web portal to all federal, state and local government web resources and services.